AirNav   Air Wisconsin pilot careers
 
 1095 users online  

1G8 Eddie Dew Memorial Airpark
Toronto, Ohio, USA

GOING TO TORONTO?


FAA INFORMATION EFFECTIVE 11 OCTOBER 2018

Location

FAA Identifier: 1G8
Lat/Long: 40-28-33.2380N / 080-37-41.2650W
40-28.553967N / 080-37.687750W
40.4758994 / -80.6281292
(estimated)
Elevation: 1084 ft. / 330.4 m (surveyed)
Variation: 07W (1985)
From city: 2 miles NW of TORONTO, OH
Time zone: UTC -4 (UTC -5 during Standard Time)
Zip code: 43964

Airport Operations

Airport use: Open to the public
Activation date: 12/1937
Control tower: no
ARTCC: CLEVELAND CENTER
FSS: CLEVELAND FLIGHT SERVICE STATION
NOTAMs facility: CLE (NOTAM-D service available)
Attendance: IREG
Wind indicator: yes
Segmented circle: no
Lights: ACTVT LIRL RY 16/34 - CTAF.

Airport Communications

CTAF: 122.9
WX ASOS at PIT (18 nm E): PHONE 412-472-0145
WX ASOS at HLG (18 nm S): 127.375 (304-277-3504)
  • CTAF/MULTICOM 122.9MHZ

Nearby radio navigation aids

VOR radial/distance  VOR name  Freq  Var
HLGr355/13.2WHEELING VOR/DME112.2007W
EWCr230/28.3ELLWOOD CITY VOR/DME115.8008W
AIRr024/28.9BELLAIRE VOR/DME117.1007W
AGCr303/29.3ALLEGHENY VOR/DME110.0009W
BSVr117/39.9BRIGGS VOR/DME112.4004W

 
NDB name  Hdg/Dist  Freq  Var  ID
CADIZ058/22.723907WCFX -.-. ..-. -..-
CASTLE205/34.227209WUCP ..- -.-. .--.

Airport Services

Parking: tiedowns
Airframe service: NONE
Powerplant service: NONE
Bottled oxygen: NONE
Bulk oxygen: NONE

Runway Information

Runway 16/34

Dimensions: 2268 x 145 ft. / 691 x 44 m
Surface: turf, in good condition
Runway edge lights: non-standard
NSTD LIRL; RY ENDS MKD WITH 360 DEG GREEN LGTS.
RUNWAY 16  RUNWAY 34
Latitude: 40-28.370500N40-28.022333N
Longitude: 080-37.587667W080-37.421833W
Elevation: 1084.0 ft.1084.0 ft.
Traffic pattern: leftleft
Runway end identifier lights: nono
Obstructions: 35 ft. trees, 100 ft. left of centerline
RWY 16: ALSO +15FT RD 35 FT FM RWY 16 90FT L&R, 2:1; +15FT RD 55 FT FM RWY 16 ON CL, 5:1 SLOPE.
20 ft. trees, 110 ft. right of centerline

Airport Ownership and Management from official FAA records

Ownership: Privately-owned
Owner: EDDIE DEW MEM AIRPARK
611 TOWNSHIP HWY 245
TORONTO, OH 43964
Phone 740-512-3138
Manager: RICH GRANTONIC
RD 2, BOX 159A
TORONTO, OH 43964
Phone (740) 632-3332
ADDL CTC: MANAGERS CELL (740) 632-3332, RICHG645@GMAIL.COM

Airport Operational Statistics

Aircraft based on the field: 23
Single engine airplanes: 20
Helicopters: 1
Ultralights: 2
    
Aircraft operations: avg 32/week *
97% local general aviation
3% transient general aviation
* for 12-month period ending 12 August 2017

Additional Remarks

DEER, BIRDS & OTHER WILDLIFE ON & INVOF AIRPORT

Instrument Procedures

There are no published instrument procedures at 1G8.

Some nearby airports with instrument procedures:

2G2 - Jefferson County Airpark (8 nm SW)
02G - Columbiana County Airport (12 nm N)
KPIT - Pittsburgh International Airport (18 nm E)
KHLG - Wheeling Ohio County Airport (18 nm S)
KBVI - Beaver County Airport (21 nm NE)
 
Loc | Ops | Rwys | IFR | FBO | Links
Com | Nav | Svcs | Stats | Notes


 
Area around 1G8 (Eddie Dew Memorial Airpark)
 
Road maps at: MapQuest Bing Google
 
Aerial photo
WARNING: Photo may not be current or correct
Aerial photo of 1G8 (Eddie Dew Memorial Airpark)
Photo by Steve Kalasky
Taken early October 2010
looking northwest.

Do you have a better or more recent aerial photo of Eddie Dew Memorial Airpark that you would like to share? If so, please send us your photo.

 
Sectional chart

 
Airport distance calculator
Flying to Eddie Dew Memorial Airpark? Find the distance to fly.

From to 1G8

Sunrise and sunset
Times for 15-Oct-2018
 Local
(UTC-4)
 Zulu
(UTC)
Morning civil twilight07:0711:07
Sunrise07:3411:34
Sunset18:4222:42
Evening civil twilight19:1023:10

Current date and time
Zulu (UTC)  16-Oct-2018 00:13:33
Local (UTC-4)  15-Oct-2018 20:13:33
 
METAR
KPIT 
17nm E 
152351Z 28017G21KT 10SM OVC021 11/08 A3009 RMK AO2 PRESRR SLP197 60016 T01060078 10167 20106 53034
KHLG 
19nm S 
152353Z 29007G16KT 10SM FEW017 OVC026 11/08 A3011 RMK AO2 SLP196 60008 T01060078 10167 20106 53028
KBVI 
20nm NE 
152347Z 29008G16KT 10SM BKN030 BKN035 OVC075 10/07 A3009
KAFJ 
27nm SE 
152356Z AUTO 29009G17KT 10SM BKN023 OVC028 11/09 A3013 RMK AO2 SLP202 60009 T01110089 10178 20111 53030
TAF
KPIT 
17nm E 
152207Z 1522/1624 29012KT P6SM BKN015 FM160000 29010KT P6SM BKN025 FM160300 29010KT P6SM SCT050 FM161200 26005KT P6SM FEW200
KHLG 
19nm S 
152100Z 1521/1618 29010KT P6SM BKN015 FM152300 28010KT P6SM OVC020 FM160100 29010KT P6SM BKN035 FM160900 27005KT P6SM SCT250
KBVI 
20nm NE 
152058Z 1521/1618 29010G20KT P6SM OVC010 TEMPO 1521/1522 OVC008 FM152300 28010KT P6SM BKN020 FM160300 29010KT P6SM SCT060 FM161000 26006KT P6SM FEW150
NOTAMs
Click for the latest NOTAMs
NOTAMs are issued by the DoD/FAA and will open in a separate window not controlled by AirNav.

 

 
 

Would you like to see your business listed on this page?

 If your business provides an interesting product or service to pilots, flight crews, aircraft, or users of the Eddie Dew Memorial Airpark, you should consider listing it here.  To start the listing process, click on the button below
 
Add a business
 

Other Pages about Eddie Dew Memorial Airpark

Update a link
 
Copyright © AirNav, LLC. All rights reserved. Privacy Policy  Contact